Time,TemperatureF,DewpointF,PressureIn,WindDirection,WindDirectionDegrees,WindSpeedMPH,WindSpeedGustMPH,Humidity,HourlyPrecipIn,Conditions,Clouds,dailyrainin,SoftwareType,DateUTC
2013-02-16 00:03:00,8.7,6.9,30.47,WNW,292,0.0,2.0,92,0.00,,,0.00,Weather View 32 v70,2013-02-16 06:03:00,
2013-02-16 00:08:00,8.9,7.1,30.47,WNW,292,0.0,2.0,92,0.00,,,0.00,Weather View 32 v70,2013-02-16 06:08:00,
2013-02-16 00:13:00,8.9,7.1,30.47,WNW,292,0.0,2.0,92,0.00,,,0.00,Weather View 32 v70,2013-02-16 06:13:00,
2013-02-16 00:18:00,8.5,6.7,30.47,WNW,292,0.0,2.0,92,0.00,,,0.00,Weather View 32 v70,2013-02-16 06:18:00,
2013-02-16 00:23:00,8.2,6.4,30.46,WNW,292,0.0,1.0,92,0.00,,,0.00,Weather View 32 v70,2013-02-16 06:23:00,
2013-02-16 00:28:00,8.6,6.8,30.46,WNW,292,0.0,0.0,92,0.00,,,0.00,Weather View 32 v70,2013-02-16 06:28:00,
2013-02-16 00:33:00,8.6,6.8,30.46,WNW,292,0.0,0.0,92,0.00,,,0.00,Weather View 32 v70,2013-02-16 06:33:00,
2013-02-16 00:38:00,8.7,6.9,30.46,WNW,292,0.0,0.0,92,0.00,,,0.00,Weather View 32 v70,2013-02-16 06:38:00,
2013-02-16 00:43:00,8.6,6.8,30.46,WNW,292,0.0,0.0,92,0.00,,,0.00,Weather View 32 v70,2013-02-16 06:43:00,
2013-02-16 00:48:00,8.4,6.6,30.46,WNW,292,0.0,0.0,92,0.00,,,0.00,Weather View 32 v70,2013-02-16 06:48:00,
2013-02-16 00:53:00,8.7,6.9,30.46,WNW,292,0.0,0.0,92,0.00,,,0.00,Weather View 32 v70,2013-02-16 06:53:00,
2013-02-16 00:58:00,8.8,7.0,30.46,WNW,292,0.0,0.0,92,0.00,,,0.00,Weather View 32 v70,2013-02-16 06:58:00,
2013-02-16 01:03:00,8.9,7.1,30.46,WNW,292,0.0,0.0,92,0.00,,,0.00,Weather View 32 v70,2013-02-16 07:03:00,
2013-02-16 01:08:00,8.9,7.1,30.45,WNW,292,1.0,2.0,92,0.00,,,0.00,Weather View 32 v70,2013-02-16 07:08:00,
2013-02-16 01:13:00,8.9,7.1,30.45,WNW,292,0.0,2.0,92,0.00,,,0.00,Weather View 32 v70,2013-02-16 07:13:00,
2013-02-16 01:18:00,8.8,7.0,30.45,WNW,292,0.0,2.0,92,0.00,,,0.00,Weather View 32 v70,2013-02-16 07:18:00,
2013-02-16 01:23:00,8.5,6.7,30.45,WNW,292,0.0,2.0,92,0.00,,,0.00,Weather View 32 v70,2013-02-16 07:23:00,
2013-02-16 01:28:00,8.2,6.4,30.45,WNW,292,0.0,2.0,92,0.00,,,0.00,Weather View 32 v70,2013-02-16 07:28:00,
2013-02-16 01:33:00,8.6,6.8,30.44,WNW,292,0.0,2.0,92,0.00,,,0.00,Weather View 32 v70,2013-02-16 07:33:00,
2013-02-16 01:38:00,8.9,7.1,30.44,WNW,292,0.0,2.0,92,0.00,,,0.00,Weather View 32 v70,2013-02-16 07:38:00,
2013-02-16 01:43:00,8.9,7.1,30.44,WNW,292,0.0,2.0,92,0.00,,,0.00,Weather View 32 v70,2013-02-16 07:43:00,
2013-02-16 01:48:00,9.2,7.4,30.44,WNW,292,0.0,2.0,92,0.00,,,0.00,Weather View 32 v70,2013-02-16 07:48:00,
2013-02-16 01:53:00,9.3,7.5,30.44,WNW,292,0.0,2.0,92,0.00,,,0.00,Weather View 32 v70,2013-02-16 07:53:00,
2013-02-16 01:58:00,9.3,7.5,30.44,WNW,292,0.0,2.0,92,0.00,,,0.00,Weather View 32 v70,2013-02-16 07:58:00,
2013-02-16 02:03:00,9.3,7.5,30.43,WNW,292,0.0,2.0,92,0.00,,,0.00,Weather View 32 v70,2013-02-16 08:03:00,
2013-02-16 02:08:00,9.4,7.6,30.43,WNW,292,1.0,2.0,92,0.00,,,0.00,Weather View 32 v70,2013-02-16 08:08:00,
2013-02-16 02:13:00,9.4,7.6,30.43,WNW,292,0.0,1.0,92,0.00,,,0.00,Weather View 32 v70,2013-02-16 08:13:00,
2013-02-16 02:18:00,9.4,7.6,30.43,WNW,292,0.0,1.0,92,0.00,,,0.00,Weather View 32 v70,2013-02-16 08:18:00,
2013-02-16 02:23:00,9.6,7.7,30.43,WNW,292,0.0,2.0,92,0.00,,,0.00,Weather View 32 v70,2013-02-16 08:23:00,
2013-02-16 02:28:00,9.5,7.6,30.43,WNW,292,0.0,2.0,92,0.00,,,0.00,Weather View 32 v70,2013-02-16 08:28:00,
2013-02-16 02:33:00,9.4,7.6,30.42,WNW,292,0.0,2.0,92,0.00,,,0.00,Weather View 32 v70,2013-02-16 08:33:00,
2013-02-16 02:38:00,9.3,7.5,30.42,WNW,292,0.0,2.0,92,0.00,,,0.00,Weather View 32 v70,2013-02-16 08:38:00,
2013-02-16 02:43:00,9.1,7.3,30.42,WNW,292,0.0,2.0,92,0.00,,,0.00,Weather View 32 v70,2013-02-16 08:43:00,
2013-02-16 02:48:00,9.2,7.4,30.42,SSW,202,0.0,2.0,92,0.00,,,0.00,Weather View 32 v70,2013-02-16 08:48:00,
2013-02-16 02:53:00,9.3,7.5,30.42,SSW,202,0.0,2.0,92,0.00,,,0.00,Weather View 32 v70,2013-02-16 08:53:00,
2013-02-16 02:58:00,9.3,7.5,30.41,SSW,202,1.0,2.0,92,0.00,,,0.00,Weather View 32 v70,2013-02-16 08:58:00,
2013-02-16 03:03:00,9.3,7.5,30.41,SSW,202,0.0,2.0,92,0.00,,,0.00,Weather View 32 v70,2013-02-16 09:03:00,
2013-02-16 03:08:00,9.2,7.4,30.41,SSW,202,1.0,2.0,92,0.00,,,0.00,Weather View 32 v70,2013-02-16 09:08:00,
2013-02-16 03:13:00,9.1,7.3,30.41,SSW,202,1.0,2.0,92,0.00,,,0.00,Weather View 32 v70,2013-02-16 09:13:00,
2013-02-16 03:18:00,9.1,7.3,30.41,SSW,202,1.0,2.0,92,0.00,,,0.00,Weather View 32 v70,2013-02-16 09:18:00,
2013-02-16 03:23:00,8.9,7.1,30.41,SSW,202,0.0,2.0,92,0.00,,,0.00,Weather View 32 v70,2013-02-16 09:23:00,
2013-02-16 03:28:00,8.9,7.1,30.40,SSW,202,1.0,2.0,92,0.00,,,0.00,Weather View 32 v70,2013-02-16 09:28:00,
2013-02-16 03:33:00,9.1,7.3,30.40,SSW,202,1.0,2.0,92,0.00,,,0.00,Weather View 32 v70,2013-02-16 09:33:00,
2013-02-16 03:38:00,9.1,7.3,30.40,SSW,202,1.0,2.0,92,0.00,,,0.00,Weather View 32 v70,2013-02-16 09:38:00,
2013-02-16 03:43:00,9.1,7.3,30.40,SSE,157,2.0,2.0,92,0.00,,,0.00,Weather View 32 v70,2013-02-16 09:43:00,
2013-02-16 03:48:00,9.1,7.3,30.40,SSE,157,2.0,2.0,92,0.00,,,0.00,Weather View 32 v70,2013-02-16 09:48:00,
2013-02-16 03:53:00,9.1,7.3,30.40,SSE,157,0.0,2.0,92,0.00,,,0.00,Weather View 32 v70,2013-02-16 09:53:00,
2013-02-16 03:58:00,9.1,7.3,30.39,SSE,157,2.0,2.0,92,0.00,,,0.00,Weather View 32 v70,2013-02-16 09:58:00,
2013-02-16 04:03:00,9.2,7.4,30.39,SSE,157,2.0,2.0,92,0.00,,,0.00,Weather View 32 v70,2013-02-16 10:03:00,
2013-02-16 04:08:00,9.3,7.5,30.39,SE,135,2.0,2.0,92,0.00,,,0.00,Weather View 32 v70,2013-02-16 10:08:00,
2013-02-16 04:13:00,9.5,7.6,30.39,SE,135,2.0,3.0,92,0.00,,,0.00,Weather View 32 v70,2013-02-16 10:13:00,
2013-02-16 04:18:00,9.7,7.8,30.39,SE,135,1.0,3.0,92,0.00,,,0.00,Weather View 32 v70,2013-02-16 10:18:00,
2013-02-16 04:23:00,9.8,7.9,30.38,SE,135,2.0,3.0,92,0.00,,,0.00,Weather View 32 v70,2013-02-16 10:23:00,
2013-02-16 04:28:00,9.8,7.9,30.38,SE,135,0.0,3.0,92,0.00,,,0.00,Weather View 32 v70,2013-02-16 10:28:00,
2013-02-16 04:33:00,9.8,7.9,30.38,SE,135,1.0,3.0,92,0.00,,,0.00,Weather View 32 v70,2013-02-16 10:33:00,
2013-02-16 04:38:00,9.9,8.0,30.38,SE,135,1.0,3.0,92,0.00,,,0.00,Weather View 32 v70,2013-02-16 10:38:00,
2013-02-16 04:43:00,9.9,8.0,30.38,SE,135,2.0,3.0,92,0.00,,,0.00,Weather View 32 v70,2013-02-16 10:43:00,
2013-02-16 04:48:00,9.9,8.0,30.37,SE,135,2.0,3.0,92,0.00,,,0.00,Weather View 32 v70,2013-02-16 10:48:00,
2013-02-16 04:53:00,10.1,8.2,30.37,SE,135,2.0,3.0,92,0.00,,,0.00,Weather View 32 v70,2013-02-16 10:53:00,
2013-02-16 04:58:00,10.1,8.2,30.37,SE,135,2.0,3.0,92,0.00,,,0.00,Weather View 32 v70,2013-02-16 10:58:00,
2013-02-16 05:03:00,10.2,8.3,30.37,SE,135,2.0,3.0,92,0.00,,,0.00,Weather View 32 v70,2013-02-16 11:03:00,
2013-02-16 05:08:00,10.3,8.4,30.37,SE,135,1.0,4.0,92,0.00,,,0.00,Weather View 32 v70,2013-02-16 11:08:00,
2013-02-16 05:13:00,10.4,8.5,30.37,SE,135,2.0,4.0,92,0.00,,,0.00,Weather View 32 v70,2013-02-16 11:13:00,
2013-02-16 05:18:00,10.5,8.6,30.36,SE,135,1.0,4.0,92,0.00,,,0.00,Weather View 32 v70,2013-02-16 11:18:00,
2013-02-16 05:23:00,10.6,8.7,30.35,SE,135,2.0,4.0,92,0.00,,,0.00,Weather View 32 v70,2013-02-16 11:23:00,
2013-02-16 05:28:00,10.7,8.8,30.35,SE,135,2.0,4.0,92,0.00,,,0.00,Weather View 32 v70,2013-02-16 11:28:00,
2013-02-16 05:33:00,10.9,9.0,30.34,SE,135,3.0,4.0,92,0.00,,,0.00,Weather View 32 v70,2013-02-16 11:33:00,
2013-02-16 05:38:00,11.2,9.6,30.34,SE,135,3.0,4.0,93,0.00,,,0.00,Weather View 32 v70,2013-02-16 11:38:00,
2013-02-16 05:43:00,11.3,9.7,30.34,SE,135,2.0,6.0,93,0.00,,,0.00,Weather View 32 v70,2013-02-16 11:43:00,
2013-02-16 05:48:00,11.4,9.8,30.34,SE,135,2.0,6.0,93,0.00,,,0.00,Weather View 32 v70,2013-02-16 11:48:00,
2013-02-16 05:53:00,11.5,9.9,30.34,SE,135,2.0,6.0,93,0.00,,,0.00,Weather View 32 v70,2013-02-16 11:53:00,
2013-02-16 05:58:00,11.6,10.0,30.33,SE,135,4.0,6.0,93,0.00,,,0.00,Weather View 32 v70,2013-02-16 11:58:00,
2013-02-16 06:03:00,11.8,10.2,30.33,SE,135,2.0,6.0,93,0.00,,,0.00,Weather View 32 v70,2013-02-16 12:03:00,
2013-02-16 06:08:00,11.9,10.3,30.32,ESE,112,2.0,6.0,93,0.00,,,0.00,Weather View 32 v70,2013-02-16 12:08:00,
2013-02-16 06:14:00,11.9,10.3,30.32,ESE,112,2.0,6.0,93,0.00,,,0.00,Weather View 32 v70,2013-02-16 12:14:00,
2013-02-16 06:19:00,12.1,10.5,30.32,ESE,112,4.0,6.0,93,0.00,,,0.00,Weather View 32 v70,2013-02-16 12:19:00,
2013-02-16 06:24:00,12.3,10.7,30.32,ESE,112,4.0,7.0,93,0.00,,,0.00,Weather View 32 v70,2013-02-16 12:24:00,
2013-02-16 06:29:00,12.4,10.8,30.31,ESE,112,4.0,7.0,93,0.00,,,0.00,Weather View 32 v70,2013-02-16 12:29:00,
2013-02-16 06:34:00,12.4,10.8,30.31,ESE,112,2.0,7.0,93,0.00,,,0.00,Weather View 32 v70,2013-02-16 12:34:00,
2013-02-16 06:39:00,12.5,10.9,30.31,SE,135,1.0,7.0,93,0.00,,,0.00,Weather View 32 v70,2013-02-16 12:39:00,
2013-02-16 06:44:00,12.6,11.0,30.31,ESE,112,2.0,7.0,93,0.00,,,0.00,Weather View 32 v70,2013-02-16 12:44:00,
2013-02-16 06:49:00,12.6,11.0,30.31,ESE,112,2.0,7.0,93,0.00,,,0.00,Weather View 32 v70,2013-02-16 12:49:00,
2013-02-16 06:54:00,12.6,11.0,30.30,SE,135,4.0,7.0,93,0.00,,,0.00,Weather View 32 v70,2013-02-16 12:54:00,
2013-02-16 06:59:00,12.6,11.0,30.30,SE,135,4.0,7.0,93,0.00,,,0.00,Weather View 32 v70,2013-02-16 12:59:00,
2013-02-16 07:04:00,12.7,11.1,30.30,ESE,112,4.0,7.0,93,0.00,,,0.00,Weather View 32 v70,2013-02-16 13:04:00,
2013-02-16 07:09:00,12.7,11.1,30.29,ESE,112,5.0,8.0,93,0.00,,,0.00,Weather View 32 v70,2013-02-16 13:09:00,
2013-02-16 07:14:00,12.8,11.2,30.29,ESE,112,4.0,8.0,93,0.00,,,0.00,Weather View 32 v70,2013-02-16 13:14:00,
2013-02-16 07:19:00,12.8,11.2,30.29,SE,135,3.0,8.0,93,0.00,,,0.00,Weather View 32 v70,2013-02-16 13:19:00,
2013-02-16 07:24:00,12.7,11.1,30.29,SE,135,5.0,8.0,93,0.00,,,0.00,Weather View 32 v70,2013-02-16 13:24:00,
2013-02-16 07:29:00,12.6,11.0,30.29,SE,135,5.0,8.0,93,0.00,,,0.00,Weather View 32 v70,2013-02-16 13:29:00,
2013-02-16 07:34:00,12.6,11.0,30.30,SE,135,5.0,8.0,93,0.00,,,0.00,Weather View 32 v70,2013-02-16 13:34:00,
2013-02-16 07:39:00,12.7,11.1,30.29,ESE,112,4.0,8.0,93,0.00,,,0.00,Weather View 32 v70,2013-02-16 13:39:00,
2013-02-16 07:44:00,12.8,11.2,30.29,SE,135,2.0,8.0,93,0.00,,,0.00,Weather View 32 v70,2013-02-16 13:44:00,
2013-02-16 07:49:00,12.9,11.3,30.29,SE,135,6.0,9.0,93,0.00,,,0.00,Weather View 32 v70,2013-02-16 13:49:00,
2013-02-16 07:54:00,13.2,11.6,30.29,SE,135,9.0,9.0,93,0.00,,,0.00,Weather View 32 v70,2013-02-16 13:54:00,
2013-02-16 07:59:00,13.5,11.9,30.29,ESE,112,4.0,9.0,93,0.00,,,0.00,Weather View 32 v70,2013-02-16 13:59:00,
2013-02-16 08:04:00,13.8,11.9,30.29,ESE,112,6.0,9.0,92,0.00,,,0.00,Weather View 32 v70,2013-02-16 14:04:00,
2013-02-16 08:09:00,14.3,12.2,30.29,ESE,112,4.0,9.0,91,0.00,,,0.00,Weather View 32 v70,2013-02-16 14:09:00,
2013-02-16 08:14:00,14.5,12.4,30.29,ESE,112,9.0,9.0,91,0.00,,,0.00,Weather View 32 v70,2013-02-16 14:14:00,
2013-02-16 08:19:00,14.7,12.6,30.29,East,90,6.0,9.0,91,0.00,,,0.00,Weather View 32 v70,2013-02-16 14:19:00,
2013-02-16 08:24:00,14.9,12.5,30.29,SE,135,6.0,9.0,90,0.00,,,0.00,Weather View 32 v70,2013-02-16 14:24:00,
2013-02-16 08:29:00,15.1,12.7,30.29,SE,135,4.0,12.0,90,0.00,,,0.00,Weather View 32 v70,2013-02-16 14:29:00,
2013-02-16 08:34:00,15.3,12.9,30.29,SE,135,6.0,12.0,90,0.00,,,0.00,Weather View 32 v70,2013-02-16 14:34:00,
2013-02-16 08:39:00,15.2,12.8,30.29,ESE,112,5.0,12.0,90,0.00,,,0.00,Weather View 32 v70,2013-02-16 14:39:00,
2013-02-16 08:44:00,15.5,13.1,30.29,ESE,112,5.0,12.0,90,0.00,,,0.00,Weather View 32 v70,2013-02-16 14:44:00,
2013-02-16 08:49:00,15.9,13.2,30.28,ESE,112,6.0,12.0,89,0.00,,,0.00,Weather View 32 v70,2013-02-16 14:49:00,
2013-02-16 08:54:00,16.3,13.6,30.28,ESE,112,6.0,12.0,89,0.00,,,0.00,Weather View 32 v70,2013-02-16 14:54:00,
2013-02-16 08:59:00,16.6,13.7,30.27,SE,135,5.0,12.0,88,0.00,,,0.00,Weather View 32 v70,2013-02-16 14:59:00,
2013-02-16 09:04:00,16.9,14.0,30.27,SE,135,3.0,12.0,88,0.00,,,0.00,Weather View 32 v70,2013-02-16 15:04:00,
2013-02-16 09:09:00,17.1,14.2,30.27,SE,135,5.0,12.0,88,0.00,,,0.00,Weather View 32 v70,2013-02-16 15:09:00,
2013-02-16 09:14:00,17.6,14.7,30.27,SE,135,6.0,12.0,88,0.00,,,0.00,Weather View 32 v70,2013-02-16 15:14:00,
2013-02-16 09:19:00,17.9,14.4,30.26,SE,135,6.0,12.0,86,0.00,,,0.00,Weather View 32 v70,2013-02-16 15:19:00,
2013-02-16 09:24:00,17.9,14.4,30.26,SE,135,6.0,12.0,86,0.00,,,0.00,Weather View 32 v70,2013-02-16 15:24:00,
2013-02-16 09:29:00,17.9,14.4,30.26,SE,135,6.0,12.0,86,0.00,,,0.00,Weather View 32 v70,2013-02-16 15:29:00,
2013-02-16 09:34:00,17.8,14.3,30.26,SSE,157,3.0,12.0,86,0.00,,,0.00,Weather View 32 v70,2013-02-16 15:34:00,
2013-02-16 09:39:00,17.9,14.2,30.26,SE,135,6.0,12.0,85,0.00,,,0.00,Weather View 32 v70,2013-02-16 15:39:00,
2013-02-16 09:44:00,18.1,14.6,30.26,SSW,202,2.0,12.0,86,0.00,,,0.00,Weather View 32 v70,2013-02-16 15:44:00,
2013-02-16 09:49:00,18.4,14.6,30.26,South,180,2.0,12.0,85,0.00,,,0.00,Weather View 32 v70,2013-02-16 15:49:00,
2013-02-16 09:54:00,18.9,15.1,30.26,SE,135,2.0,12.0,85,0.00,,,0.00,Weather View 32 v70,2013-02-16 15:54:00,
2013-02-16 09:59:00,19.5,15.5,30.26,SE,135,2.0,12.0,84,0.00,,,0.00,Weather View 32 v70,2013-02-16 15:59:00,
2013-02-16 10:04:00,19.9,15.9,30.26,SSE,157,4.0,12.0,84,0.00,,,0.00,Weather View 32 v70,2013-02-16 16:04:00,
2013-02-16 10:09:00,20.4,15.8,30.26,SE,135,6.0,12.0,82,0.00,,,0.00,Weather View 32 v70,2013-02-16 16:09:00,
2013-02-16 10:14:00,20.8,16.2,30.26,SE,135,6.0,12.0,82,0.00,,,0.00,Weather View 32 v70,2013-02-16 16:14:00,
2013-02-16 10:19:00,21.6,16.4,30.26,SE,135,1.0,12.0,80,0.00,,,0.00,Weather View 32 v70,2013-02-16 16:19:00,
2013-02-16 10:24:00,22.2,16.7,30.25,SE,135,6.0,11.0,79,0.00,,,0.00,Weather View 32 v70,2013-02-16 16:24:00,
2013-02-16 10:29:00,22.9,17.4,30.25,South,180,2.0,11.0,79,0.00,,,0.00,Weather View 32 v70,2013-02-16 16:29:00,
2013-02-16 10:34:00,23.7,17.8,30.25,South,180,1.0,11.0,78,0.00,,,0.00,Weather View 32 v70,2013-02-16 16:34:00,
2013-02-16 10:39:00,23.4,17.6,30.24,SE,135,7.0,11.0,78,0.00,,,0.00,Weather View 32 v70,2013-02-16 16:39:00,
2013-02-16 10:44:00,23.6,17.8,30.24,ESE,112,6.0,11.0,78,0.00,,,0.00,Weather View 32 v70,2013-02-16 16:44:00,
2013-02-16 10:49:00,24.3,18.4,30.24,SE,135,3.0,11.0,78,0.00,,,0.00,Weather View 32 v70,2013-02-16 16:49:00,
2013-02-16 10:54:00,25.1,18.6,30.24,SE,135,8.0,11.0,76,0.00,,,0.00,Weather View 32 v70,2013-02-16 16:54:00,
2013-02-16 10:59:00,25.2,18.7,30.23,SE,135,6.0,11.0,76,0.00,,,0.00,Weather View 32 v70,2013-02-16 16:59:00,
2013-02-16 11:04:00,25.1,19.2,30.23,South,180,4.0,12.0,78,0.00,,,0.00,Weather View 32 v70,2013-02-16 17:04:00,
2013-02-16 11:09:00,25.1,19.5,30.23,South,180,5.0,12.0,79,0.00,,,0.00,Weather View 32 v70,2013-02-16 17:09:00,
2013-02-16 11:14:00,26.1,20.2,30.23,SSE,157,4.0,12.0,78,0.00,,,0.00,Weather View 32 v70,2013-02-16 17:14:00,
2013-02-16 11:19:00,26.4,20.2,30.23,SE,135,4.0,12.0,77,0.00,,,0.00,Weather View 32 v70,2013-02-16 17:19:00,
2013-02-16 11:24:00,27.1,20.8,30.22,SE,135,2.0,12.0,77,0.00,,,0.00,Weather View 32 v70,2013-02-16 17:24:00,
2013-02-16 11:29:00,27.4,21.1,30.22,South,180,5.0,12.0,77,0.00,,,0.00,Weather View 32 v70,2013-02-16 17:29:00,
2013-02-16 11:34:00,27.9,21.3,30.22,SE,135,10.0,12.0,76,0.00,,,0.00,Weather View 32 v70,2013-02-16 17:34:00,
2013-02-16 11:39:00,28.2,21.6,30.22,South,180,6.0,12.0,76,0.00,,,0.00,Weather View 32 v70,2013-02-16 17:39:00,
2013-02-16 11:44:00,28.7,22.7,30.22,SE,135,2.0,12.0,78,0.00,,,0.00,Weather View 32 v70,2013-02-16 17:44:00,
2013-02-16 11:49:00,29.2,22.9,30.22,South,180,2.0,12.0,77,0.00,,,0.00,Weather View 32 v70,2013-02-16 17:49:00,
2013-02-16 11:54:00,29.3,23.6,30.21,South,180,4.0,12.0,79,0.00,,,0.00,Weather View 32 v70,2013-02-16 17:54:00,
2013-02-16 11:59:00,29.3,23.0,30.21,South,180,6.0,12.0,77,0.00,,,0.00,Weather View 32 v70,2013-02-16 17:59:00,
2013-02-16 12:04:00,29.3,23.3,30.21,South,180,6.0,12.0,78,0.00,,,0.00,Weather View 32 v70,2013-02-16 18:04:00,
2013-02-16 12:09:00,29.6,24.2,30.21,South,180,6.0,12.0,80,0.00,,,0.00,Weather View 32 v70,2013-02-16 18:09:00,
2013-02-16 12:14:00,30.2,23.9,30.21,South,180,2.0,12.0,77,0.00,,,0.00,Weather View 32 v70,2013-02-16 18:14:00,
2013-02-16 12:19:00,30.3,24.0,30.21,South,180,3.0,12.0,77,0.00,,,0.00,Weather View 32 v70,2013-02-16 18:19:00,
2013-02-16 12:24:00,30.7,24.7,30.21,SSW,202,4.0,12.0,78,0.00,,,0.00,Weather View 32 v70,2013-02-16 18:24:00,
2013-02-16 12:29:00,30.9,24.5,30.20,South,180,5.0,12.0,77,0.00,,,0.00,Weather View 32 v70,2013-02-16 18:29:00,
2013-02-16 12:34:00,30.6,24.2,30.20,South,180,2.0,12.0,77,0.00,,,0.00,Weather View 32 v70,2013-02-16 18:34:00,
2013-02-16 12:39:00,31.1,25.3,30.20,SSW,202,7.0,12.0,79,0.00,,,0.00,Weather View 32 v70,2013-02-16 18:39:00,
2013-02-16 12:44:00,30.9,25.2,30.20,SSW,202,3.0,12.0,79,0.00,,,0.00,Weather View 32 v70,2013-02-16 18:44:00,
2013-02-16 12:49:00,30.9,24.5,30.20,South,180,1.0,12.0,77,0.00,,,0.00,Weather View 32 v70,2013-02-16 18:49:00,
2013-02-16 12:54:00,31.5,25.7,30.20,SSW,202,1.0,12.0,79,0.00,,,0.00,Weather View 32 v70,2013-02-16 18:54:00,
2013-02-16 12:59:00,32.1,25.7,30.20,South,180,4.0,12.0,77,0.00,,,0.00,Weather View 32 v70,2013-02-16 18:59:00,
2013-02-16 13:04:00,31.7,25.6,30.20,South,180,3.0,12.0,78,0.00,,,0.00,Weather View 32 v70,2013-02-16 19:04:00,
2013-02-16 13:09:00,31.9,25.8,30.19,SE,135,4.0,12.0,78,0.00,,,0.00,Weather View 32 v70,2013-02-16 19:09:00,
2013-02-16 13:14:00,32.3,26.2,30.19,SSW,202,7.0,12.0,78,0.00,,,0.00,Weather View 32 v70,2013-02-16 19:14:00,
2013-02-16 13:19:00,32.1,26.6,30.19,South,180,4.0,10.0,80,0.00,,,0.00,Weather View 32 v70,2013-02-16 19:19:00,
2013-02-16 13:24:00,31.6,25.8,30.19,South,180,1.0,10.0,79,0.00,,,0.00,Weather View 32 v70,2013-02-16 19:24:00,
2013-02-16 13:29:00,31.6,26.4,30.18,SSW,202,2.0,10.0,81,0.00,,,0.00,Weather View 32 v70,2013-02-16 19:29:00,
2013-02-16 13:34:00,32.2,27.0,30.18,SE,135,2.0,10.0,81,0.00,,,0.00,Weather View 32 v70,2013-02-16 19:34:00,
2013-02-16 13:40:00,32.7,27.2,30.18,SSW,202,4.0,11.0,80,0.00,,,0.00,Weather View 32 v70,2013-02-16 19:40:00,
2013-02-16 13:45:00,32.8,26.7,30.18,East,90,4.0,11.0,78,0.00,,,0.00,Weather View 32 v70,2013-02-16 19:45:00,
2013-02-16 13:50:00,32.7,26.9,30.18,SE,135,4.0,11.0,79,0.00,,,0.00,Weather View 32 v70,2013-02-16 19:50:00,
2013-02-16 13:55:00,32.7,26.6,30.18,SE,135,4.0,11.0,78,0.00,,,0.00,Weather View 32 v70,2013-02-16 19:55:00,
2013-02-16 14:00:00,32.7,26.9,30.18,SE,135,2.0,11.0,79,0.00,,,0.00,Weather View 32 v70,2013-02-16 20:00:00,
2013-02-16 14:05:00,32.7,26.9,30.18,ESE,112,11.0,11.0,79,0.00,,,0.00,Weather View 32 v70,2013-02-16 20:05:00,
2013-02-16 14:10:00,32.5,27.0,30.18,SW,225,1.0,12.0,80,0.00,,,0.00,Weather View 32 v70,2013-02-16 20:10:00,
2013-02-16 14:15:00,32.8,27.3,30.17,South,180,1.0,12.0,80,0.00,,,0.00,Weather View 32 v70,2013-02-16 20:15:00,
2013-02-16 14:20:00,32.8,27.3,30.17,ESE,112,6.0,12.0,80,0.00,,,0.00,Weather View 32 v70,2013-02-16 20:20:00,
2013-02-16 14:25:00,32.8,27.3,30.17,SE,135,4.0,12.0,80,0.00,,,0.00,Weather View 32 v70,2013-02-16 20:25:00,
2013-02-16 14:30:00,32.9,27.7,30.16,SE,135,3.0,12.0,81,0.00,,,0.00,Weather View 32 v70,2013-02-16 20:30:00,
2013-02-16 14:35:00,33.2,27.7,30.16,South,180,0.0,12.0,80,0.00,,,0.00,Weather View 32 v70,2013-02-16 20:35:00,
2013-02-16 14:40:00,33.2,27.7,30.17,South,180,6.0,12.0,80,0.00,,,0.00,Weather View 32 v70,2013-02-16 20:40:00,
2013-02-16 14:45:00,33.0,27.2,30.17,SSW,202,1.0,12.0,79,0.00,,,0.00,Weather View 32 v70,2013-02-16 20:45:00,
2013-02-16 14:50:00,32.9,27.1,30.16,SE,135,1.0,12.0,79,0.00,,,0.00,Weather View 32 v70,2013-02-16 20:50:00,
2013-02-16 14:55:00,33.0,26.9,30.16,SSW,202,6.0,12.0,78,0.00,,,0.00,Weather View 32 v70,2013-02-16 20:55:00,
2013-02-16 15:00:00,32.9,27.7,30.16,South,180,2.0,12.0,81,0.00,,,0.00,Weather View 32 v70,2013-02-16 21:00:00,
2013-02-16 15:05:00,33.0,27.2,30.16,SSW,202,2.0,12.0,79,0.00,,,0.00,Weather View 32 v70,2013-02-16 21:05:00,
2013-02-16 15:10:00,32.9,27.7,30.16,South,180,4.0,11.0,81,0.00,,,0.00,Weather View 32 v70,2013-02-16 21:10:00,
2013-02-16 15:15:00,32.8,27.9,30.16,ESE,112,1.0,11.0,82,0.00,,,0.00,Weather View 32 v70,2013-02-16 21:15:00,
2013-02-16 15:20:00,32.8,27.3,30.16,SSW,202,3.0,11.0,80,0.00,,,0.00,Weather View 32 v70,2013-02-16 21:20:00,
2013-02-16 15:25:00,32.7,27.5,30.16,SW,225,3.0,11.0,81,0.00,,,0.00,Weather View 32 v70,2013-02-16 21:25:00,
2013-02-16 15:30:00,32.5,27.6,30.17,SW,225,6.0,11.0,82,0.00,,,0.00,Weather View 32 v70,2013-02-16 21:30:00,
2013-02-16 15:35:00,32.4,27.2,30.16,South,180,4.0,11.0,81,0.00,,,0.00,Weather View 32 v70,2013-02-16 21:35:00,
2013-02-16 15:40:00,32.4,27.2,30.16,South,180,6.0,11.0,81,0.00,,,0.00,Weather View 32 v70,2013-02-16 21:40:00,
2013-02-16 15:45:00,32.3,27.4,30.16,SSW,202,2.0,11.0,82,0.00,,,0.00,Weather View 32 v70,2013-02-16 21:45:00,
2013-02-16 15:50:00,32.3,27.4,30.16,SSW,202,6.0,11.0,82,0.00,,,0.00,Weather View 32 v70,2013-02-16 21:50:00,
2013-02-16 15:55:00,32.3,27.1,30.16,South,180,2.0,11.0,81,0.00,,,0.00,Weather View 32 v70,2013-02-16 21:55:00,
2013-02-16 16:00:00,32.3,27.1,30.17,South,180,6.0,11.0,81,0.00,,,0.00,Weather View 32 v70,2013-02-16 22:00:00,
2013-02-16 16:05:00,32.3,26.8,30.16,SE,135,2.0,11.0,80,0.00,,,0.00,Weather View 32 v70,2013-02-16 22:05:00,
2013-02-16 16:10:00,32.4,26.9,30.16,South,180,2.0,11.0,80,0.00,,,0.00,Weather View 32 v70,2013-02-16 22:10:00,
2013-02-16 16:15:00,32.5,27.0,30.16,South,180,3.0,11.0,80,0.00,,,0.00,Weather View 32 v70,2013-02-16 22:15:00,
2013-02-16 16:20:00,32.4,26.9,30.16,East,90,2.0,11.0,80,0.00,,,0.00,Weather View 32 v70,2013-02-16 22:20:00,
2013-02-16 16:25:00,32.3,26.5,30.16,South,180,1.0,11.0,79,0.00,,,0.00,Weather View 32 v70,2013-02-16 22:25:00,
2013-02-16 16:30:00,32.4,26.6,30.17,South,180,6.0,10.0,79,0.00,,,0.00,Weather View 32 v70,2013-02-16 22:30:00,
2013-02-16 16:35:00,32.4,26.6,30.16,SSW,202,4.0,10.0,79,0.00,,,0.00,Weather View 32 v70,2013-02-16 22:35:00,
2013-02-16 16:40:00,32.2,26.4,30.16,SSW,202,1.0,10.0,79,0.00,,,0.00,Weather View 32 v70,2013-02-16 22:40:00,
2013-02-16 16:45:00,32.2,26.7,30.16,SSW,202,6.0,9.0,80,0.00,,,0.00,Weather View 32 v70,2013-02-16 22:45:00,
2013-02-16 16:50:00,32.0,26.2,30.16,South,180,4.0,9.0,79,0.00,,,0.00,Weather View 32 v70,2013-02-16 22:50:00,
2013-02-16 16:55:00,32.0,26.5,30.16,South,180,3.0,9.0,80,0.00,,,0.00,Weather View 32 v70,2013-02-16 22:55:00,
2013-02-16 17:00:00,32.0,26.5,30.16,South,180,2.0,9.0,80,0.00,,,0.00,Weather View 32 v70,2013-02-16 23:00:00,
2013-02-16 17:05:00,32.1,26.3,30.16,East,90,3.0,9.0,79,0.00,,,0.00,Weather View 32 v70,2013-02-16 23:05:00,
2013-02-16 17:10:00,32.0,26.5,30.16,SSE,157,1.0,9.0,80,0.00,,,0.00,Weather View 32 v70,2013-02-16 23:10:00,
2013-02-16 17:15:00,31.9,26.1,30.16,South,180,0.0,9.0,79,0.00,,,0.00,Weather View 32 v70,2013-02-16 23:15:00,
2013-02-16 17:20:00,31.9,26.1,30.17,SSW,202,1.0,9.0,79,0.00,,,0.00,Weather View 32 v70,2013-02-16 23:20:00,
2013-02-16 17:25:00,31.9,26.1,30.16,SE,135,3.0,9.0,79,0.00,,,0.00,Weather View 32 v70,2013-02-16 23:25:00,
2013-02-16 17:30:00,31.9,26.1,30.17,SSE,157,1.0,9.0,79,0.00,,,0.00,Weather View 32 v70,2013-02-16 23:30:00,
2013-02-16 17:35:00,31.8,25.7,30.17,SE,135,6.0,9.0,78,0.00,,,0.00,Weather View 32 v70,2013-02-16 23:35:00,
2013-02-16 17:40:00,31.8,26.0,30.16,SE,135,2.0,9.0,79,0.00,,,0.00,Weather View 32 v70,2013-02-16 23:40:00,
2013-02-16 17:45:00,31.7,25.9,30.16,SE,135,3.0,9.0,79,0.00,,,0.00,Weather View 32 v70,2013-02-16 23:45:00,
2013-02-16 17:50:00,31.5,25.7,30.16,SE,135,4.0,9.0,79,0.00,,,0.00,Weather View 32 v70,2013-02-16 23:50:00,
2013-02-16 17:55:00,31.5,25.7,30.16,ESE,112,4.0,9.0,79,0.00,,,0.00,Weather View 32 v70,2013-02-16 23:55:00,
2013-02-16 18:00:00,31.5,26.0,30.16,SE,135,3.0,9.0,80,0.00,,,0.00,Weather View 32 v70,2013-02-17 00:00:00,
2013-02-16 18:05:00,31.4,25.9,30.16,SE,135,4.0,9.0,80,0.00,,,0.00,Weather View 32 v70,2013-02-17 00:05:00,
2013-02-16 18:10:00,31.4,25.9,30.17,SE,135,4.0,9.0,80,0.00,,,0.00,Weather View 32 v70,2013-02-17 00:10:00,
2013-02-16 18:15:00,31.4,25.9,30.16,ESE,112,4.0,9.0,80,0.00,,,0.00,Weather View 32 v70,2013-02-17 00:15:00,
2013-02-16 18:20:00,31.3,25.8,30.16,SE,135,2.0,9.0,80,0.00,,,0.00,Weather View 32 v70,2013-02-17 00:20:00,
2013-02-16 18:25:00,31.3,25.8,30.17,SE,135,3.0,9.0,80,0.00,,,0.00,Weather View 32 v70,2013-02-17 00:25:00,
2013-02-16 18:30:00,31.3,25.8,30.16,SE,135,4.0,9.0,80,0.00,,,0.00,Weather View 32 v70,2013-02-17 00:30:00,
2013-02-16 18:35:00,31.2,25.7,30.16,SE,135,3.0,9.0,80,0.00,,,0.00,Weather View 32 v70,2013-02-17 00:35:00,
2013-02-16 18:40:00,31.2,25.4,30.16,SE,135,4.0,8.0,79,0.00,,,0.00,Weather View 32 v70,2013-02-17 00:40:00,
2013-02-16 18:45:00,31.2,25.7,30.16,SE,135,5.0,8.0,80,0.00,,,0.00,Weather View 32 v70,2013-02-17 00:45:00,
2013-02-16 18:50:00,31.2,25.7,30.16,ESE,112,4.0,8.0,80,0.00,,,0.00,Weather View 32 v70,2013-02-17 00:50:00,
2013-02-16 18:55:00,31.2,25.4,30.16,ESE,112,4.0,8.0,79,0.00,,,0.00,Weather View 32 v70,2013-02-17 00:55:00,
2013-02-16 19:00:00,31.2,25.4,30.16,East,90,6.0,9.0,79,0.00,,,0.00,Weather View 32 v70,2013-02-17 01:00:00,
2013-02-16 19:05:00,31.2,25.4,30.16,ESE,112,4.0,9.0,79,0.00,,,0.00,Weather View 32 v70,2013-02-17 01:05:00,
2013-02-16 19:10:00,31.1,25.3,30.16,SE,135,3.0,9.0,79,0.00,,,0.00,Weather View 32 v70,2013-02-17 01:10:00,
2013-02-16 19:15:00,31.1,25.3,30.16,ESE,112,3.0,9.0,79,0.00,,,0.00,Weather View 32 v70,2013-02-17 01:15:00,
2013-02-16 19:20:00,31.0,25.6,30.16,SE,135,4.0,9.0,80,0.00,,,0.00,Weather View 32 v70,2013-02-17 01:20:00,
2013-02-16 19:25:00,30.9,25.5,30.16,ESE,112,3.0,9.0,80,0.00,,,0.00,Weather View 32 v70,2013-02-17 01:25:00,
2013-02-16 19:30:00,30.8,25.7,30.16,ESE,112,4.0,9.0,81,0.00,,,0.00,Weather View 32 v70,2013-02-17 01:30:00,
2013-02-16 19:35:00,30.7,25.6,30.16,ESE,112,6.0,9.0,81,0.00,,,0.00,Weather View 32 v70,2013-02-17 01:35:00,
2013-02-16 19:40:00,30.6,25.5,30.16,SE,135,3.0,11.0,81,0.00,,,0.00,Weather View 32 v70,2013-02-17 01:40:00,
2013-02-16 19:45:00,30.4,25.6,30.16,ESE,112,6.0,11.0,82,0.00,,,0.00,Weather View 32 v70,2013-02-17 01:45:00,
2013-02-16 19:50:00,30.2,25.4,30.16,ESE,112,7.0,11.0,82,0.00,,,0.00,Weather View 32 v70,2013-02-17 01:50:00,
2013-02-16 19:55:00,30.0,25.2,30.15,SE,135,5.0,11.0,82,0.00,,,0.00,Weather View 32 v70,2013-02-17 01:55:00,
2013-02-16 20:00:00,29.9,25.4,30.15,East,90,6.0,11.0,83,0.00,,,0.00,Weather View 32 v70,2013-02-17 02:00:00,
2013-02-16 20:05:00,29.8,25.3,30.15,SE,135,5.0,11.0,83,0.00,,,0.00,Weather View 32 v70,2013-02-17 02:05:00,
2013-02-16 20:10:00,29.6,25.1,30.15,SE,135,6.0,11.0,83,0.00,,,0.00,Weather View 32 v70,2013-02-17 02:10:00,
2013-02-16 20:15:00,29.5,25.3,30.14,SE,135,2.0,11.0,84,0.00,,,0.00,Weather View 32 v70,2013-02-17 02:15:00,
2013-02-16 20:20:00,29.3,25.1,30.15,East,90,4.0,11.0,84,0.00,,,0.00,Weather View 32 v70,2013-02-17 02:20:00,
2013-02-16 20:25:00,29.3,24.8,30.15,SE,135,5.0,11.0,83,0.00,,,0.00,Weather View 32 v70,2013-02-17 02:25:00,
2013-02-16 20:30:00,29.3,24.8,30.15,ESE,112,3.0,11.0,83,0.00,,,0.00,Weather View 32 v70,2013-02-17 02:30:00,
2013-02-16 20:35:00,29.3,24.8,30.15,SE,135,4.0,11.0,83,0.00,,,0.00,Weather View 32 v70,2013-02-17 02:35:00,
2013-02-16 20:40:00,29.3,24.8,30.15,East,90,6.0,11.0,83,0.00,,,0.00,Weather View 32 v70,2013-02-17 02:40:00,
2013-02-16 20:45:00,29.3,24.8,30.15,SE,135,4.0,11.0,83,0.00,,,0.00,Weather View 32 v70,2013-02-17 02:45:00,
2013-02-16 20:50:00,29.2,24.7,30.14,ESE,112,6.0,11.0,83,0.00,,,0.00,Weather View 32 v70,2013-02-17 02:50:00,
2013-02-16 20:55:00,29.2,24.7,30.14,SE,135,5.0,11.0,83,0.00,,,0.00,Weather View 32 v70,2013-02-17 02:55:00,
2013-02-16 21:00:00,29.1,24.6,30.14,SE,135,6.0,11.0,83,0.00,,,0.00,Weather View 32 v70,2013-02-17 03:00:00,
2013-02-16 21:05:00,29.1,24.6,30.15,SE,135,9.0,12.0,83,0.00,,,0.00,Weather View 32 v70,2013-02-17 03:05:00,
2013-02-16 21:10:00,29.1,24.6,30.15,East,90,6.0,14.0,83,0.00,,,0.00,Weather View 32 v70,2013-02-17 03:10:00,
2013-02-16 21:15:00,29.1,24.3,30.15,ESE,112,6.0,14.0,82,0.00,,,0.00,Weather View 32 v70,2013-02-17 03:15:00,
2013-02-16 21:20:00,29.0,24.2,30.15,SE,135,4.0,14.0,82,0.00,,,0.00,Weather View 32 v70,2013-02-17 03:20:00,
2013-02-16 21:25:00,28.9,24.1,30.15,ESE,112,6.0,14.0,82,0.00,,,0.00,Weather View 32 v70,2013-02-17 03:25:00,
2013-02-16 21:30:00,28.9,24.1,30.15,ESE,112,6.0,14.0,82,0.00,,,0.00,Weather View 32 v70,2013-02-17 03:30:00,
2013-02-16 21:35:00,28.9,24.1,30.14,SE,135,9.0,14.0,82,0.00,,,0.00,Weather View 32 v70,2013-02-17 03:35:00,
2013-02-16 21:40:00,28.9,24.1,30.15,ESE,112,6.0,14.0,82,0.00,,,0.00,Weather View 32 v70,2013-02-17 03:40:00,
2013-02-16 21:45:00,28.9,24.1,30.14,SE,135,5.0,14.0,82,0.00,,,0.00,Weather View 32 v70,2013-02-17 03:45:00,
2013-02-16 21:50:00,28.8,24.0,30.14,SE,135,9.0,14.0,82,0.00,,,0.00,Weather View 32 v70,2013-02-17 03:50:00,
2013-02-16 21:55:00,28.6,23.8,30.14,SE,135,7.0,14.0,82,0.00,,,0.00,Weather View 32 v70,2013-02-17 03:55:00,
2013-02-16 22:01:00,28.5,23.7,30.15,ESE,112,5.0,14.0,82,0.00,,,0.00,Weather View 32 v70,2013-02-17 04:01:00,
2013-02-16 22:06:00,28.3,23.8,30.15,SE,135,6.0,14.0,83,0.00,,,0.00,Weather View 32 v70,2013-02-17 04:06:00,
2013-02-16 22:11:00,28.2,23.7,30.14,SE,135,4.0,14.0,83,0.00,,,0.00,Weather View 32 v70,2013-02-17 04:11:00,
2013-02-16 22:16:00,27.9,23.7,30.14,SE,135,8.0,14.0,84,0.00,,,0.00,Weather View 32 v70,2013-02-17 04:16:00,
2013-02-16 22:21:00,27.9,23.4,30.14,SE,135,6.0,14.0,83,0.00,,,0.00,Weather View 32 v70,2013-02-17 04:21:00,
2013-02-16 22:26:00,27.8,23.6,30.14,SE,135,7.0,14.0,84,0.00,,,0.00,Weather View 32 v70,2013-02-17 04:26:00,
2013-02-16 22:31:00,27.6,23.4,30.14,SE,135,6.0,14.0,84,0.00,,,0.00,Weather View 32 v70,2013-02-17 04:31:00,
2013-02-16 22:36:00,27.4,23.5,30.14,SE,135,7.0,14.0,85,0.00,,,0.00,Weather View 32 v70,2013-02-17 04:36:00,
2013-02-16 22:41:00,27.2,23.3,30.14,SE,135,7.0,14.0,85,0.00,,,0.00,Weather View 32 v70,2013-02-17 04:41:00,
2013-02-16 22:46:00,27.1,23.2,30.14,SE,135,5.0,14.0,85,0.00,,,0.00,Weather View 32 v70,2013-02-17 04:46:00,
2013-02-16 22:51:00,26.9,23.3,30.14,ESE,112,7.0,14.0,86,0.00,,,0.00,Weather View 32 v70,2013-02-17 04:51:00,
2013-02-16 22:56:00,26.7,23.1,30.14,ESE,112,5.0,14.0,86,0.00,,,0.00,Weather View 32 v70,2013-02-17 04:56:00,
2013-02-16 23:00:00,26.5,22.9,30.14,ESE,112,5.0,14.0,86,0.00,,,0.00,Weather View 32 v70,2013-02-17 05:00:00,
2013-02-16 23:05:00,26.3,23.0,30.14,ESE,112,2.0,14.0,87,0.00,,,0.00,Weather View 32 v70,2013-02-17 05:05:00,
2013-02-16 23:10:00,26.2,22.9,30.15,ESE,112,4.0,14.0,87,0.00,,,0.00,Weather View 32 v70,2013-02-17 05:10:00,
2013-02-16 23:15:00,25.9,22.6,30.15,East,90,4.0,14.0,87,0.00,,,0.00,Weather View 32 v70,2013-02-17 05:15:00,
2013-02-16 23:20:00,25.9,22.6,30.14,ESE,112,7.0,14.0,87,0.00,,,0.00,Weather View 32 v70,2013-02-17 05:20:00,
2013-02-16 23:25:00,25.8,22.5,30.14,SE,135,6.0,12.0,87,0.00,,,0.00,Weather View 32 v70,2013-02-17 05:25:00,
2013-02-16 23:30:00,25.6,22.5,30.13,ESE,112,5.0,11.0,88,0.00,,,0.00,Weather View 32 v70,2013-02-17 05:30:00,
2013-02-16 23:35:00,25.6,22.3,30.13,ESE,112,6.0,11.0,87,0.00,,,0.00,Weather View 32 v70,2013-02-17 05:35:00,
2013-02-16 23:40:00,25.6,22.3,30.13,SE,135,6.0,11.0,87,0.00,,,0.00,Weather View 32 v70,2013-02-17 05:40:00,
2013-02-16 23:45:00,25.5,22.2,30.13,ESE,112,4.0,10.0,87,0.00,,,0.00,Weather View 32 v70,2013-02-17 05:45:00,
2013-02-16 23:50:00,25.4,22.3,30.13,ESE,112,4.0,10.0,88,0.00,,,0.00,Weather View 32 v70,2013-02-17 05:50:00,
2013-02-16 23:55:00,25.3,22.0,30.13,SE,135,6.0,10.0,87,0.00,,,0.00,Weather View 32 v70,2013-02-17 05:55:00,